Flag for Switzerland Weather past 2 weeks in Schaffhausen, Schaffhausen, Switzerland

Now
53 °F

Cool.


Feels Like: 52 °F
Forecast: 40 / 62 °F
Wind: 5 mph from Northwest

Location: Zurich-Kloten

Current Time: Sep 22, 2014 at 10:18:39 PM

Latest Report: Sep 22, 2014 at 9:00 PM


Visibility: N/A

Pressure: 30.18 "Hg

Humidity: 70%

Dew point: 43 °F

Location of SchaffhausenLocation

Historic Weather in Schaffhausen — Graph

°F

Schaffhausen temperature yesterday

Maximum temperature yesterday: 67 °F (at 1:00 PM)
Minimum temperature yesterday: 56 °F (at 11:00 PM)
Average temperature yesterday: 61 °F

Past Weeks' High & Low Weather Summary

 TemperatureHumidityPressure
High80 °F (Sep 8, 4:00 PM)100% (Sep 8, 6:00 AM)30.18 "Hg (Sep 8, 6:00 AM)
Low49 °F (Sep 12, 6:00 AM)48% (Sep 11, 4:00 PM)29.81 "Hg (Sep 17, 5:00 PM)
Average61 °F83%30.00 "Hg
* Reported Sep 7 9:00 PM — Sep 22 9:00 PM, Schaffhausen, Weather by CustomWeather, © 2014

Note: Actual official high and low records may vary slightly from our data, if they occured in-between our weather recording intervals... More about our weather records

Advertising

Schaffhausen weather history for previous 24 hours

 ConditionsComfort  
Time TempWeatherWind HumidityBarometerVisibility
9:00 PM
Sep 22
53 °FCool.5 mph70%30.18 "HgN/A
8:00 PM51 °FPassing clouds.3 mph79%30.17 "Hg11 mi
7:00 PM55 °FRefreshingly cool.3 mph58%30.14 "HgN/A
6:00 PM55 °FCool.9 mph64%30.12 "HgN/A
5:00 PM59 °FPartly sunny.10 mph53%30.09 "Hg16 mi
4:00 PM60 °FRefreshingly cool.12 mph53%30.06 "HgN/A
3:00 PM60 °FRefreshingly cool.7 mph55%30.07 "HgN/A
2:00 PM58 °FScattered clouds.1 mph57%30.10 "Hg10 mi
1:00 PM59 °FRefreshingly cool.3 mph59%30.12 "HgN/A
12:00 PM57 °FCool.6 mph69%30.14 "HgN/A
11:00 AM55 °FFog.7 mph69%30.15 "Hg6 mi
10:00 AM54 °FCool.1 mph82%30.15 "HgN/A
9:00 AM52 °FCool.1 mph93%30.16 "HgN/A
8:00 AM49 °FFog.1 mph100%30.16 "Hg1 mi
7:00 AM50 °FCool.6 mph99%30.14 "HgN/A
6:00 AM51 °FCool.2 mph99%30.12 "HgN/A
5:00 AM53 °FFog.1 mph96%30.11 "Hg9 mi
4:00 AM54 °FCool.2 mph96%30.11 "HgN/A
3:00 AM55 °FCool.2 mph97%30.11 "HgN/A
2:00 AM55 °FRain. Low clouds.3 mph96%30.11 "Hg3 mi
1:00 AM55 °FCool.3 mph95%30.10 "HgN/A
12:00 AM56 °FCool.1 mph95%30.09 "HgN/A
11:00 PM
Sep 21
56 °FLots of rain. Low clouds.5 mph91%30.08 "Hg3 mi
10:00 PM58 °FCool.8 mph94%30.06 "HgN/A
Weather by CustomWeather, © 2014

See weather overviewHow to use our weather pages